�N����,����,�~����,�C��,���x,�C��,����,���ϕ���,�ő�u�ԕ���,�ő厞����,���˗�,�I�_���x,�n�����x,�ő啗���N��,DTYPE
"18/02/14","00:10",0.0,-0.4,76.9,1015.6,329.6,2.5,4.1,343.9,0.00,-3.9,2.8,"00:04:40",1
"18/02/14","00:20",0.0,-0.4,76.0,1015.4,330.3,2.6,4.8,327.5,0.00,-4.1,2.9,"00:12:40",1
"18/02/14","00:30",0.0,-0.5,76.6,1016.1,329.6,2.2,3.9,336.3,0.00,-4.1,3.0,"00:23:44",1
"18/02/14","00:40",0.0,-0.7,77.1,1015.6,336.9,1.1,2.1,346.9,0.00,-4.2,2.6,"00:30:32",1
"18/02/14","00:50",0.0,-0.7,76.9,1015.9,339.9,1.2,2.6,326.9,0.00,-4.2,2.9,"00:42:16",1
"18/02/14","01:00",0.0,-0.6,76.9,1015.9,340.6,0.5,1.1,336.9,0.00,-4.1,2.7,"00:51:12",1
"18/02/14","01:10",0.0,-0.9,76.0,1015.6,11.7,0.5,2.0,337.1,0.00,-4.6,2.9,"01:07:12",1
"18/02/14","01:20",0.0,-1.0,77.3,1015.9,83.2,0.7,2.0,332.0,0.00,-4.4,2.6,"01:12:00",1
"18/02/14","01:30",0.0,-1.5,78.6,1015.9,222.3,0.5,0.9,315.7,0.00,-4.7,2.6,"01:23:20",1
"18/02/14","01:40",0.0,-1.8,80.3,1015.9,323.3,1.5,2.4,309.0,0.00,-4.7,2.7,"01:33:20",1
"18/02/14","01:50",0.0,-1.8,80.5,1015.9,342.4,1.1,2.6,346.5,0.00,-4.7,2.5,"01:46:08",1
"18/02/14","02:00",0.0,-2.0,82.9,1015.9,329.4,2.0,2.7,352.3,0.00,-4.5,2.6,"01:57:28",1
"18/02/14","02:10",0.0,-2.1,83.4,1016.1,331.0,1.8,2.5,339.0,0.00,-4.5,2.5,"02:00:32",1
"18/02/14","02:20",0.0,-2.4,85.3,1016.1,301.9,1.5,2.5,320.8,0.00,-4.5,2.6,"02:19:52",1
"18/02/14","02:30",0.0,-2.6,85.8,1015.9,312.5,2.0,2.7,321.5,0.00,-4.6,2.3,"02:29:52",1
"18/02/14","02:40",0.0,-2.5,87.9,1016.1,300.5,2.0,2.6,321.6,0.00,-4.2,2.4,"02:30:08",1
"18/02/14","02:50",0.0,-2.5,87.3,1016.1,288.1,1.7,2.6,321.2,0.00,-4.3,2.3,"02:47:04",1
"18/02/14","03:00",0.0,-2.5,87.8,1016.4,304.0,1.8,2.4,319.3,0.00,-4.2,2.5,"02:58:00",1
"18/02/14","03:10",0.0,-2.6,88.1,1015.9,307.9,1.8,2.2,313.3,0.00,-4.3,2.3,"03:00:08",1
"18/02/14","03:20",0.0,-3.2,88.0,1016.1,308.9,2.3,2.9,316.4,0.00,-4.9,2.3,"03:15:20",1
"18/02/14","03:30",0.0,-3.4,89.5,1016.1,289.7,1.7,2.4,306.5,0.00,-4.8,2.3,"03:22:24",1
"18/02/14","03:40",0.0,-3.4,90.9,1016.1,289.5,1.8,2.2,305.3,0.00,-4.6,2.2,"03:37:52",1
"18/02/14","03:50",0.0,-3.5,90.3,1015.6,306.0,2.5,3.1,317.7,0.00,-4.8,2.1,"03:43:36",1
"18/02/14","04:00",0.0,-3.7,91.6,1016.1,307.4,2.6,3.1,315.3,0.00,-4.8,2.2,"03:50:46",1
"18/02/14","04:10",0.0,-3.8,92.1,1015.9,299.9,2.1,2.7,320.7,0.00,-4.9,2.1,"04:02:00",1
"18/02/14","04:20",0.0,-3.9,93.0,1015.6,297.6,2.3,3.1,309.3,0.00,-4.8,2.1,"04:14:16",1
"18/02/14","04:30",0.0,-3.9,93.0,1016.1,307.5,2.5,2.8,312.4,0.00,-4.8,2.0,"04:28:46",1
"18/02/14","04:40",0.0,-3.9,93.8,1015.9,302.9,2.5,2.8,311.8,0.00,-4.7,2.0,"04:38:02",1
"18/02/14","04:50",0.0,-3.9,93.7,1016.1,305.8,2.2,2.7,316.2,0.00,-4.7,2.1,"04:46:50",1
"18/02/14","05:00",0.0,-4.2,94.0,1016.4,299.8,2.2,2.9,316.8,0.00,-5.0,2.1,"04:58:48",1
"18/02/14","05:10",0.0,-4.3,94.3,1015.9,291.0,1.5,2.9,314.3,0.00,-5.0,1.9,"05:02:20",1
"18/02/14","05:20",0.0,-4.4,94.8,1015.4,301.7,2.0,2.8,314.9,0.00,-5.1,1.9,"05:18:08",1
"18/02/14","05:30",0.0,-4.5,95.3,1015.9,287.5,1.2,2.4,316.8,0.00,-5.1,1.9,"05:20:24",1
"18/02/14","05:40",0.0,-4.4,96.0,1015.9,313.7,2.7,3.2,315.6,0.00,-4.9,2.0,"05:33:28",1
"18/02/14","05:50",0.0,-4.4,95.0,1015.9,319.3,3.1,3.1,319.3,0.00,-5.0,1.8,"05:46:24",1
"18/02/14","06:00",0.0,-4.6,96.0,1015.4,299.5,2.0,2.5,304.9,0.00,-5.1,1.9,"05:52:58",1
"18/02/14","06:10",0.0,-4.5,96.6,1015.4,297.3,1.8,2.7,315.0,0.00,-4.9,2.0,"06:01:12",1
"18/02/14","06:20",0.0,-4.4,95.8,1015.4,298.5,1.7,2.7,309.0,0.00,-4.9,1.5,"06:10:40",1
"18/02/14","06:30",0.0,-4.5,96.1,1015.4,300.4,2.3,3.3,320.0,0.00,-5.0,1.8,"06:21:44",1
"18/02/14","06:40",0.0,-4.5,96.5,1014.9,290.3,2.0,2.6,309.4,0.00,-4.9,1.8,"06:32:16",1
"18/02/14","06:50",0.0,-4.5,96.1,1015.2,294.4,1.3,3.3,314.9,0.00,-5.0,1.7,"06:49:04",1
"18/02/14","07:00",0.0,-4.3,96.5,1015.2,313.6,1.7,3.3,309.7,0.00,-4.7,1.8,"06:50:16",1
"18/02/14","07:10",0.0,-4.4,96.1,1015.2,297.0,2.1,2.2,306.7,0.00,-4.9,1.7,"07:01:04",1
"18/02/14","07:20",0.0,-4.1,96.6,1015.4,294.0,2.0,3.2,313.9,0.00,-4.5,1.7,"07:12:26",1
"18/02/14","07:30",0.0,-3.7,96.5,1015.4,294.7,1.2,1.9,310.0,0.00,-4.1,1.9,"07:29:10",1
"18/02/14","07:40",0.0,-2.2,93.8,1015.6,301.7,1.1,1.6,298.6,0.02,-3.0,1.6,"07:30:56",1
"18/02/14","07:50",0.0,-2.2,91.4,1016.1,286.3,0.6,1.6,303.0,0.03,-3.4,2.0,"07:49:20",1
"18/02/14","08:00",0.0,-1.5,90.3,1016.1,301.6,1.5,2.7,318.2,0.04,-2.8,1.7,"07:52:06",1
"18/02/14","08:10",0.0,-0.6,86.5,1016.6,296.9,1.0,1.7,314.4,0.05,-2.5,1.8,"08:02:16",1
"18/02/14","08:20",0.0,-0.6,86.1,1016.1,189.3,0.5,1.0,296.7,0.05,-2.6,1.7,"08:10:26",1
"18/02/14","08:30",0.0,0.2,82.2,1016.4,230.9,0.6,1.0,241.6,0.08,-2.4,1.8,"08:26:12",1
"18/02/14","08:40",0.0,0.8,78.9,1016.8,280.9,0.4,0.4,280.9,0.11,-2.4,2.0,"08:37:30",1
"18/02/14","08:50",0.0,1.5,75.8,1017.1,301.9,0.8,1.7,336.6,0.14,-2.3,2.0,"08:46:32",1
"18/02/14","09:00",0.0,1.4,73.5,1017.5,236.7,0.7,1.1,43.0,0.16,-2.8,2.0,"08:58:56",1
"18/02/14","09:10",0.0,1.9,73.8,1018.0,291.6,0.6,1.2,323.4,0.19,-2.2,2.2,"09:01:38",1
"18/02/14","09:20",0.0,2.0,71.3,1017.8,149.4,0.7,2.0,130.2,0.22,-2.6,2.2,"09:12:00",1
"18/02/14","09:30",0.0,2.4,71.5,1018.0,162.0,1.2,2.7,107.6,0.24,-2.2,2.3,"09:29:44",1
"18/02/14","09:40",0.0,2.7,72.3,1018.2,168.3,1.5,2.4,183.3,0.26,-1.7,2.3,"09:37:24",1
"18/02/14","09:50",0.0,3.5,71.7,1018.2,139.6,1.1,2.5,184.6,0.29,-1.1,2.6,"09:48:56",1
"18/02/14","10:00",0.0,3.5,71.5,1018.0,196.0,1.0,2.7,133.0,0.31,-1.1,2.7,"09:51:40",1
"18/02/14","10:10",0.0,3.5,68.5,1018.0,185.4,1.6,3.2,187.4,0.33,-1.7,2.7,"10:01:22",1
"18/02/14","10:20",0.0,4.1,69.1,1018.0,189.9,1.5,2.9,144.8,0.35,-1.0,2.7,"10:16:48",1
"18/02/14","10:30",0.0,4.2,67.0,1017.8,160.6,2.0,4.1,118.7,0.37,-1.3,3.3,"10:27:04",1
"18/02/14","10:40",0.0,4.6,65.9,1018.0,171.7,1.5,3.5,179.4,0.38,-1.2,3.3,"10:31:36",1
"18/02/14","10:50",0.0,5.0,63.9,1017.3,39.0,1.5,3.3,106.6,0.40,-1.2,3.6,"10:44:32",1
"18/02/14","11:00",0.0,6.1,64.0,1017.5,150.7,1.5,3.5,28.2,0.41,-0.2,4.0,"10:51:12",1
"18/02/14","11:10",0.0,5.8,59.4,1017.1,215.7,1.5,3.5,120.1,0.42,-1.5,4.1,"11:03:36",1
"18/02/14","11:20",0.0,6.9,58.9,1016.6,139.4,1.6,3.9,179.9,0.43,-0.5,4.5,"11:16:16",1
"18/02/14","11:30",0.0,6.9,54.5,1016.1,22.2,1.2,3.1,133.1,0.44,-1.6,4.9,"11:28:16",1
"18/02/14","11:40",0.0,7.4,53.3,1016.1,107.5,1.7,4.1,136.8,0.45,-1.4,5.1,"11:33:04",1
"18/02/14","11:50",0.0,7.8,48.3,1016.1,199.1,2.2,5.0,219.1,0.46,-2.4,5.3,"11:40:16",1
"18/02/14","12:00",0.0,8.5,49.4,1016.1,167.4,2.0,5.4,166.3,0.47,-1.4,5.6,"11:54:32",1
"18/02/14","12:10",0.0,8.1,44.8,1015.6,221.9,2.5,5.7,230.8,0.47,-3.1,5.8,"12:08:16",1
"18/02/14","12:20",0.0,8.2,43.8,1015.9,248.5,1.3,3.2,249.5,0.47,-3.3,6.1,"12:19:12",1
"18/02/14","12:30",0.0,9.1,45.7,1015.4,253.9,1.7,4.2,328.5,0.47,-2.0,6.1,"12:20:24",1
"18/02/14","12:40",0.0,8.8,45.4,1014.7,191.5,3.4,5.7,187.8,0.48,-2.3,6.6,"12:32:56",1
"18/02/14","12:50",0.0,8.8,44.9,1014.5,174.4,4.0,6.5,193.6,0.47,-2.5,6.6,"12:47:44",1
"18/02/14","13:00",0.0,9.2,43.5,1014.0,227.3,2.8,6.2,204.2,0.47,-2.5,6.6,"12:58:56",1
"18/02/14","13:10",0.0,9.4,43.9,1014.2,219.0,3.1,6.4,237.3,0.46,-2.2,6.7,"13:07:12",1
"18/02/14","13:20",0.0,9.3,46.2,1014.0,225.6,2.8,6.5,192.9,0.46,-1.6,7.1,"13:12:08",1
"18/02/14","13:30",0.0,9.5,45.3,1013.0,224.3,2.3,4.2,209.2,0.45,-1.7,7.2,"13:23:36",1
"18/02/14","13:40",0.0,9.2,47.6,1013.0,215.4,3.6,6.8,231.0,0.44,-1.3,7.1,"13:31:44",1
"18/02/14","13:50",0.0,8.6,46.1,1012.8,198.8,4.1,7.2,167.6,0.42,-2.3,7.5,"13:40:16",1
"18/02/14","14:00",0.0,9.4,44.9,1013.0,201.2,3.5,6.8,227.2,0.41,-1.9,7.7,"13:58:24",1
"18/02/14","14:10",0.0,9.4,46.4,1012.6,231.1,3.1,7.1,231.5,0.39,-1.5,7.6,"14:09:20",1
"18/02/14","14:20",0.0,9.4,48.3,1012.3,199.9,3.6,5.9,182.3,0.37,-0.9,7.6,"14:13:20",1
"18/02/14","14:30",0.0,9.0,45.9,1012.3,204.2,4.2,6.6,195.4,0.35,-2.0,7.5,"14:26:48",1
"18/02/14","14:40",0.0,9.3,48.0,1012.6,207.0,3.7,7.0,208.4,0.34,-1.1,7.8,"14:38:32",1
"18/02/14","14:50",0.0,9.6,47.3,1013.0,247.1,2.6,5.4,238.7,0.31,-1.0,7.7,"14:43:20",1
"18/02/14","15:00",0.0,9.7,46.9,1012.6,220.5,2.6,5.7,188.3,0.28,-1.0,7.7,"14:54:16",1
"18/02/14","15:10",0.0,8.9,45.7,1012.6,241.8,2.5,6.7,232.3,0.21,-2.1,7.8,"15:08:00",1
"18/02/14","15:20",0.0,9.2,46.4,1012.6,269.4,3.0,5.6,249.5,0.22,-1.7,7.9,"15:17:04",1
"18/02/14","15:30",0.0,9.1,46.9,1012.8,221.8,3.4,6.0,203.4,0.21,-1.6,7.8,"15:21:20",1
"18/02/14","15:40",0.0,9.2,47.0,1013.0,271.5,2.5,5.7,326.7,0.16,-1.5,7.7,"15:36:08",1
"18/02/14","15:50",0.0,9.1,47.9,1012.8,254.7,2.7,4.4,316.5,0.16,-1.3,7.6,"15:43:04",1
"18/02/14","16:00",0.0,9.3,48.2,1013.3,250.8,2.6,5.4,236.7,0.15,-1.0,7.7,"15:52:16",1
"18/02/14","16:10",0.0,8.8,48.4,1013.5,261.0,2.5,5.0,227.9,0.10,-1.4,7.7,"16:05:52",1
"18/02/14","16:20",0.0,8.9,47.9,1013.3,251.3,2.5,4.7,198.1,0.07,-1.5,7.3,"16:17:20",1
"18/02/14","16:30",0.0,8.7,48.1,1013.0,249.4,2.3,4.8,253.0,0.06,-1.6,7.6,"16:24:48",1
"18/02/14","16:40",0.0,8.7,49.2,1013.3,242.3,1.8,3.2,246.4,0.05,-1.3,7.5,"16:37:44",1
"18/02/14","16:50",0.0,8.6,50.2,1013.0,240.1,2.1,4.3,235.5,0.04,-1.1,7.2,"16:44:56",1
"18/02/14","17:00",0.0,8.4,50.1,1013.3,229.8,1.6,3.3,228.4,0.03,-1.3,7.2,"16:57:04",1
"18/02/14","17:10",0.0,8.3,50.5,1013.3,243.8,2.3,4.9,237.3,0.01,-1.3,7.2,"17:07:28",1
"18/02/14","17:20",0.0,8.0,51.2,1013.0,242.3,1.8,4.9,213.2,0.00,-1.4,7.1,"17:13:04",1
"18/02/14","17:30",0.0,7.7,51.8,1013.0,287.0,1.2,2.4,241.1,0.00,-1.5,6.9,"17:20:16",1
"18/02/14","17:40",0.0,7.3,53.6,1013.3,275.5,1.2,2.4,249.7,0.00,-1.4,6.7,"17:34:00",1
"18/02/14","17:50",0.0,7.1,55.0,1013.5,284.4,1.8,3.3,304.0,0.00,-1.3,6.7,"17:42:32",1
"18/02/14","18:00",0.0,6.5,57.7,1013.5,280.8,1.8,2.5,295.6,0.00,-1.2,6.5,"17:53:52",1
"18/02/14","18:10",0.0,5.9,61.6,1013.5,304.9,2.1,3.1,322.0,0.00,-0.9,6.3,"18:00:02",1
"18/02/14","18:20",0.0,5.3,64.8,1013.3,304.3,2.3,3.1,313.9,0.00,-0.7,6.5,"18:10:24",1
"18/02/14","18:30",0.0,4.8,66.8,1013.5,301.0,2.0,2.5,318.0,0.00,-0.8,6.2,"18:22:40",1
"18/02/14","18:40",0.0,4.7,68.4,1013.0,296.8,1.7,3.2,318.8,0.00,-0.6,6.2,"18:38:30",1
"18/02/14","18:50",0.0,4.4,69.5,1012.8,314.8,1.5,2.2,329.9,0.00,-0.6,6.1,"18:41:12",1
"18/02/14","19:00",0.0,4.0,72.5,1012.6,289.9,1.1,1.7,323.9,0.00,-0.4,6.1,"18:56:32",1
"18/02/14","19:10",0.0,4.5,72.1,1012.3,283.7,1.8,2.1,279.1,0.00,0.0,5.9,"19:03:34",1
"18/02/14","19:20",0.0,4.7,69.4,1011.6,303.3,2.3,3.9,314.5,0.00,-0.4,5.9,"19:17:14",1
"18/02/14","19:30",0.0,4.6,70.2,1012.1,303.5,2.3,4.4,317.5,0.00,-0.3,5.7,"19:24:34",1
"18/02/14","19:40",0.0,4.4,71.2,1012.3,285.9,1.6,2.6,305.5,0.00,-0.3,5.7,"19:30:08",1
"18/02/14","19:50",0.0,4.6,72.7,1012.1,235.6,1.0,1.6,119.6,0.00,0.2,5.5,"19:40:16",1
"18/02/14","20:00",0.0,4.6,71.8,1012.1,320.6,2.1,2.8,324.4,0.00,0.0,5.6,"19:59:12",1
"18/02/14","20:10",0.0,4.4,72.8,1011.9,307.2,1.8,2.9,316.6,0.00,0.0,5.6,"20:03:06",1
"18/02/14","20:20",0.0,4.1,73.4,1012.3,297.6,1.2,1.7,299.0,0.00,-0.2,5.4,"20:10:08",1
"18/02/14","20:30",0.0,3.8,75.2,1012.1,296.5,1.1,2.0,310.6,0.00,-0.1,5.6,"20:20:24",1
"18/02/14","20:40",0.0,3.8,76.0,1011.6,281.3,1.3,1.8,288.0,0.00,0.0,5.4,"20:31:54",1
"18/02/14","20:50",0.0,4.0,76.5,1011.9,310.1,2.0,3.2,327.0,0.00,0.3,5.2,"20:47:04",1
"18/02/14","21:00",0.0,3.8,76.2,1011.6,304.9,1.1,2.0,309.6,0.00,0.0,5.2,"20:59:04",1
"18/02/14","21:10",0.0,3.7,77.8,1011.2,290.2,0.8,1.8,309.3,0.00,0.2,5.3,"21:00:02",1
"18/02/14","21:20",0.0,3.6,78.4,1011.4,308.0,1.6,2.1,308.7,0.00,0.2,5.4,"21:10:08",1
"18/02/14","21:30",0.0,3.6,79.4,1010.9,335.4,1.1,1.8,343.6,0.00,0.4,5.1,"21:25:12",1
"18/02/14","21:40",0.0,3.3,81.0,1011.2,291.5,1.5,2.1,319.3,0.00,0.4,5.1,"21:30:02",1
"18/02/14","21:50",0.0,3.3,83.1,1011.2,319.9,2.0,2.2,320.9,0.00,0.7,5.1,"21:40:56",1
"18/02/14","22:00",0.0,3.3,83.8,1011.2,313.6,1.6,2.1,326.9,0.00,0.9,4.9,"21:51:36",1
"18/02/14","22:10",0.0,3.3,84.5,1010.9,301.4,1.6,2.4,314.3,0.00,1.0,5.1,"22:05:52",1
"18/02/14","22:20",0.0,3.6,84.3,1010.7,292.1,1.7,3.2,316.9,0.00,1.2,5.0,"22:11:44",1
"18/02/14","22:30",0.0,3.8,83.5,1010.9,304.2,0.5,1.3,310.4,0.00,1.3,5.1,"22:20:40",1
"18/02/14","22:40",0.0,3.6,83.0,1010.7,314.6,2.0,3.1,321.8,0.00,1.0,4.7,"22:38:08",1
"18/02/14","22:50",0.0,3.2,85.5,1010.9,289.1,1.1,2.6,321.6,0.00,1.0,4.8,"22:40:16",1
"18/02/14","23:00",0.0,3.3,86.8,1010.7,319.4,1.7,2.5,323.4,0.00,1.4,4.9,"22:55:36",1
"18/02/14","23:10",0.0,3.3,86.7,1010.9,318.6,1.7,2.4,316.3,0.00,1.3,5.0,"23:00:24",1
"18/02/14","23:20",0.0,3.3,87.5,1011.2,285.3,1.5,2.7,320.6,0.00,1.5,4.7,"23:12:00",1
"18/02/14","23:30",0.0,3.6,87.7,1011.2,298.1,1.8,2.9,319.2,0.00,1.8,4.8,"23:25:36",1
"18/02/14","23:40",0.0,3.7,86.3,1010.9,293.2,1.6,2.9,317.7,0.00,1.7,4.7,"23:30:02",1
"18/02/14","23:50",0.0,3.8,85.2,1010.9,320.6,1.1,2.9,322.9,0.00,1.6,4.7,"23:40:16",1
"18/02/14","24:00",0.0,3.5,85.7,1010.4,291.1,0.7,1.2,306.4,0.00,1.4,4.6,"23:50:48",1
